| time (UTC) | temp C | wind direction | speed KPH | gust KPH | rain 1hr cm | rain 24hr cm | rain mn cm | humidity % | barometer mb |
| 20260503212442 | 10 | 203 | 3.2 | 20.9 | 0.00 | 0.08 | 0.08 | 86 | 1004.1 |
| 20260503205443 | 10 | 261 | 8.0 | 25.7 | 0.00 | 0.08 | 0.08 | 81 | 1004.4 |
| 20260503202439 | 10 | 261 | 9.7 | 27.4 | 0.00 | 0.08 | 0.08 | 84 | 1004.6 |
| 20260503195439 | 9 | 0 | 8.0 | 22.5 | 0.03 | 0.08 | 0.08 | 90 | 1004.7 |
| 20260503192441 | 8 | 261 | 4.8 | 17.7 | 0.08 | 0.08 | 0.08 | 92 | 1005.3 |
| 20260503185438 | 8 | 261 | 3.2 | 16.1 | 0.05 | 0.05 | 0.05 | 91 | 1006.2 |
| 20260503182438 | 7 | 261 | 4.8 | 14.5 | 0.00 | 0.00 | 0.00 | 88 | 1006.5 |
| 20260503175432 | 10 | 197 | 3.2 | 29.0 | 0.00 | 0.00 | 0.00 | 72 | 1006.8 |
| 20260503175208 | 11 | 261 | 6.4 | 20.9 | 0.00 | 0.00 | 0.00 | 68 | 1006.7 |
| 20260503072427 | 2 | 261 | 3.2 | 9.7 | 0.00 | 0.00 | 0.00 | 83 | 1010.2 |
| 20260503053809 | 1 | 177 | 4.8 | 12.9 | 0.00 | 0.00 | 0.00 | 81 | 1010.9 |
| 20260503050828 | 1 | 130 | 4.8 | 8.0 | 0.00 | 0.00 | 0.00 | 82 | 1011.3 |
| 20260503042415 | 0 | 133 | 3.2 | 6.4 | 0.00 | 0.00 | 0.00 | 84 | 1011.9 |
| 20260503040804 | 1 | 261 | 3.2 | 4.8 | 0.00 | 0.00 | 0.00 | 85 | 1012.1 |
| 20260503033754 | 1 | 261 | 3.2 | 4.8 | 0.00 | 0.00 | 0.00 | 83 | 1012.4 |
| 20260503025414 | 2 | 261 | 1.6 | 3.2 | 0.00 | 0.00 | 0.00 | 80 | 1012.6 |
| 20260503022414 | 2 | 247 | 1.6 | 3.2 | 0.00 | 0.00 | 0.00 | 76 | 1012.9 |
| 20260503015414 | 3 | 249 | 1.6 | 3.2 | 0.00 | 0.00 | 0.00 | 73 | 1012.8 |
| 20260503012414 | 4 | 249 | 1.6 | 3.2 | 0.00 | 0.00 | 0.00 | 69 | 1012.8 |
| 20260503005416 | 6 | 261 | 0.0 | 3.2 | 0.00 | 0.00 | 0.00 | 65 | 1012.7 |
| 20260503002412 | 6 | 261 | 0.0 | 3.2 | 0.00 | 0.00 | 0.00 | 66 | 1012.6 |
| 20260502235409 | 7 | 261 | 0.0 | 3.2 | 0.00 | 0.00 | 0.00 | 59 | 1012.6 |
| 20260502232410 | 8 | 249 | 0.0 | 4.8 | 0.00 | 0.00 | 0.00 | 55 | 1012.7 |
| 20260502225408 | 8 | 261 | 0.0 | 4.8 | 0.00 | 0.00 | 0.00 | 54 | 1012.9 |
| 20260502222407 | 7 | 261 | 1.6 | 4.8 | 0.00 | 0.00 | 0.00 | 59 | 1013.1 |
| 20260502215407 | 7 | 261 | 0.0 | 4.8 | 0.00 | 0.00 | 0.00 | 62 | 1013.2 |